Location: Brantley
(31.5822°N, 86.2569°W)
Time: 12:16:34
(UTC+00:00)

Vanguard 2 - Pass Details

Date: 19 February 2026
Orbit: 553 x 2896 km, 32.9° (Epoch: 17 March)

Event Time Altitude Azimuth Distance (km) Brightness Sun altitude
Rises 10:34:33 0° 244° (WSW) 4,526 - -23.7°
Reaches altitude 10° 10:38:14 10° 241° (WSW) 3,168 - -22.9°
Exits shadow 10:42:32 32° 230° (SW) 1,604 8.7 -22.0°
Maximum altitude 10:45:23 61° 163° (SSE) 952 8.0 -21.4°
Drops below altitude 10° 10:50:01 10° 83° (E) 2,085 10.9 -20.4°
Sets 10:52:01 0° 79° (E) 2,872 12.0 -20.0°
